WetterOnline ( https://www.wetteronline.de )

Wetter aktuell Haanrade

Aktuelles Wetter: Aachen-Orsbach (231m)

6-stündlich | Neueste Meldungen
Ortszeit Temperatur Wetter
Mi, 04.08. 2:00 12.0° C bedeckt
Di, 03.08. 20:00 16.8° C leicht bewölkt
Di, 03.08. 14:00 15.5° C bewölkt
Di, 03.08. 8:00 12.8° C leichter Regen
Di, 03.08. 2:00 12.2° C leichter Regen
Mo, 02.08. 20:00 16.7° C fast wolkenlos
Mo, 02.08. 14:00 13.0° C bedeckt
Mo, 02.08. 8:00 12.8° C leichter Regen
Ortszeit Temperatur Wetter
Mi, 04.08. 6:00 11.3° C bedeckt
Mi, 04.08. 5:50 11.3° C bedeckt
Mi, 04.08. 5:40 11.5° C bedeckt
Mi, 04.08. 5:30 11.3° C bedeckt
Mi, 04.08. 5:20 11.3° C bedeckt
Mi, 04.08. 5:10 11.1° C bewölkt
Mi, 04.08. 5:00 11.1° C leicht bewölkt
Mi, 04.08. 4:30 10.8° C bewölkt
Mi, 04.08. 4:00 10.9° C bedeckt
Mi, 04.08. 3:30 11.4° C bedeckt
Mi, 04.08. 3:00 11.9° C wolkig
Ortszeit Relative Feuchte Sichtweite
Mi, 04.08. 2:00 97% 5.0 km
Di, 03.08. 20:00 74% 29 km
Di, 03.08. 14:00 86% 27 km
Di, 03.08. 8:00 94% 14 km
Di, 03.08. 2:00 94% 10 km
Mo, 02.08. 20:00 68% 50 km
Mo, 02.08. 14:00 91% 11 km
Mo, 02.08. 8:00 96% 11 km
Ortszeit Relative Feuchte Sichtweite
Mi, 04.08. 6:00 95% 5.0 km
Mi, 04.08. 5:50 95% -
Mi, 04.08. 5:40 94% -
Mi, 04.08. 5:30 95% 6 km
Mi, 04.08. 5:20 95% -
Mi, 04.08. 5:10 97% -
Mi, 04.08. 5:00 93% 6 km
Mi, 04.08. 4:30 95% 7 km
Mi, 04.08. 4:00 96% 7 km
Mi, 04.08. 3:30 95% 6 km
Mi, 04.08. 3:00 93% 7 km
Ortszeit Niederschlagsmenge Niederschlagsart
Mi, 04.08. 2:00 0.0 l/m2 in 6 Std. -
Di, 03.08. 20:00 3 l/m2 in 12 Std. Regen
Di, 03.08. 14:00 3 l/m2 in 6 Std. Regen
Di, 03.08. 8:00 1 l/m2 in 12 Std. Regen
Di, 03.08. 2:00 0.1 l/m2 in 6 Std. Regen
Mo, 02.08. 20:00 5 l/m2 in 12 Std. Regen
Mo, 02.08. 14:00 5 l/m2 in 6 Std. Regen
Mo, 02.08. 8:00 4 l/m2 in 12 Std. Regen
Ortszeit Niederschlagsmenge Niederschlagsart
Mi, 04.08. 6:00 0.0 l/m2 in 1 Std. -
Mi, 04.08. 5:50 keine Meldung -
Mi, 04.08. 5:40 keine Meldung -
Mi, 04.08. 5:30 0.0 l/m2 in 1 Std. -
Mi, 04.08. 5:20 keine Meldung -
Mi, 04.08. 5:10 keine Meldung -
Mi, 04.08. 5:00 0.0 l/m2 in 1 Std. -
Mi, 04.08. 4:30 0.0 l/m2 in 1 Std. -
Mi, 04.08. 4:00 0.0 l/m2 in 1 Std. -
Mi, 04.08. 3:30 0.0 l/m2 in 1 Std. -
Mi, 04.08. 3:00 0.0 l/m2 in 1 Std. -
Ortszeit Stärke Spitze Richtung
km/h Bft. km/h Grad Sektor
Mi, 04.08. 2:00 7 2 11 210° SW
Di, 03.08. 20:00 4 1 25 70° O
Di, 03.08. 14:00 9 2 19 270° W
Di, 03.08. 8:00 4 1 11 350° N
Di, 03.08. 2:00 9 2 13 140° SO
Mo, 02.08. 20:00 7 2 18 280° W
Mo, 02.08. 14:00 4 1 14 360° N
Mo, 02.08. 8:00 6 1 13 40° NO
Ortszeit Stärke Spitze Richtung
km/h Bft. km/h Grad Sektor
Mi, 04.08. 6:00 6 1 9 210° SW
Mi, 04.08. 5:50 6 1 - 210° SW
Mi, 04.08. 5:40 7 2 - 220° SW
Mi, 04.08. 5:30 6 1 9 220° SW
Mi, 04.08. 5:20 6 1 - 220° SW
Mi, 04.08. 5:10 7 2 - 220° SW
Mi, 04.08. 5:00 4 1 7 250° W
Mi, 04.08. 4:30 4 1 4 300° NW
Mi, 04.08. 4:00 0 0 4 - -
Mi, 04.08. 3:30 4 1 4 210° SW
Mi, 04.08. 3:00 4 1 7 210° SW
Ortszeit Untergrenze Bedeckung Gattung
total tief tief mittel hoch
Mi, 04.08. 2:00 3900 m 8/8 8/8 - - -
Di, 03.08. 20:00 540 m 7/8 1/8 - - -
Di, 03.08. 14:00 270 m 7/8 7/8 - - -
Di, 03.08. 8:00 1140 m 8/8 8/8 - - -
Di, 03.08. 2:00 2100 m 8/8 8/8 - - -
Mo, 02.08. 20:00 960 m 1/8 1/8 - - -
Mo, 02.08. 14:00 300 m 8/8 8/8 - - -
Mo, 02.08. 8:00 120 m 8/8 8/8 - - -
Ortszeit Bedeckungsgrad in Achtel und Wolkenuntergrenze
Mi, 04.08. 6:00 8(3900m)
Mi, 04.08. 5:50 8(3900m)
Mi, 04.08. 5:40 8(3900m)
Mi, 04.08. 5:30 8(3900m)
Mi, 04.08. 5:20 8(3900m)
Mi, 04.08. 5:10 7(3900m)
Mi, 04.08. 5:00 2(3600m)
Mi, 04.08. 4:30 7(4200m)
Mi, 04.08. 4:00 8(4200m)
Mi, 04.08. 3:30 8(3900m)
Mi, 04.08. 3:00 6(3900m)
Ortszeit Luftdruck NN (hPa) Tendenz (hPa in 3 Std.)
Mi, 04.08. 2:00 1014 + 0,1
Di, 03.08. 20:00 1013 - 0,1
Di, 03.08. 14:00 1012 - 0,4
Di, 03.08. 8:00 1013 - 0,5
Di, 03.08. 2:00 1015 - 0,7
Mo, 02.08. 20:00 1015 - 0,2
Mo, 02.08. 14:00 1015 + 0,4
Mo, 02.08. 8:00 1014 + 0,7
Ortszeit Luftdruck NN (hPa) Tendenz (hPa in 3 Std.)
Mi, 04.08. 6:00 1014 - 0,2
Mi, 04.08. 5:50 1014 keine Meldung
Mi, 04.08. 5:40 1014 keine Meldung
Mi, 04.08. 5:30 1014 - 0,4
Mi, 04.08. 5:20 1014 keine Meldung
Mi, 04.08. 5:10 1014 keine Meldung
Mi, 04.08. 5:00 1014 - 0,5
Mi, 04.08. 4:30 1014 - 0,3
Mi, 04.08. 4:00 1014 - 0,3
Mi, 04.08. 3:30 1014 - 0,2
Mi, 04.08. 3:00 1014 - 0,1
Ortszeit Schneehöhe (cm)
Mi, 04.08. 2:00 -
Di, 03.08. 20:00 -
Di, 03.08. 14:00 -
Di, 03.08. 8:00 -
Di, 03.08. 2:00 -
Mo, 02.08. 20:00 -
Mo, 02.08. 14:00 -
Mo, 02.08. 8:00 -
Ortszeit Schneehöhe (cm)
Mi, 04.08. 6:00 -
Mi, 04.08. 5:50 -
Mi, 04.08. 5:40 -
Mi, 04.08. 5:30 -
Mi, 04.08. 5:20 -
Mi, 04.08. 5:10 -
Mi, 04.08. 5:00 -
Mi, 04.08. 4:30 -
Mi, 04.08. 4:00 -
Mi, 04.08. 3:30 -
Mi, 04.08. 3:00 -
Link zu dieser Seite / Seite empfehlen

Das Wetter in ...